Location: ČR
(50.0000°N, 15.0000°E)
Time: 09:27:17
(UTC+00:00)

Transit 2A - All Passes

Search period start: 21 October 2021 00:00
Search period end: 31 October 2021 00:00
Orbit: 593 x 965 km, 66.7° (Epoch: 20 October)

Date Brightness Start Highest point End Pass type
(mag) Time Alt. Az. Time Alt. Az. Time Alt. Az.
21 Oct - 08:20:41 10° SE 08:23:41 16° ESE 08:26:52 10° ENE daylight
21 Oct - 10:00:43 10° SSW 10:05:54 85° SE 10:11:45 10° NE daylight
21 Oct - 11:45:12 10° W 11:49:53 28° NNW 11:55:00 10° NNE daylight
21 Oct - 13:31:36 10° NW 13:35:10 16° N 13:38:54 10° NNE daylight
21 Oct - 15:16:21 10° NNW 15:20:46 20° NNE 15:25:21 10° ENE daylight
21 Oct - 16:59:30 10° NNW 17:05:30 48° NE 17:11:40 10° ESE visible
21 Oct - 18:42:53 10° NW 18:48:52 47° WSW 18:54:56 10° S visible
22 Oct - 07:48:47 10° ESE 07:49:51 11° E 07:50:55 10° E daylight
22 Oct - 09:26:38 10° SSW 09:31:43 63° ESE 09:37:27 10° NE daylight
22 Oct - 11:10:29 10° W 11:15:24 34° NW 11:20:47 10° NNE daylight
22 Oct - 12:56:46 10° NW 13:00:30 17° N 13:04:24 10° NNE daylight
22 Oct - 14:42:01 10° NNW 14:46:08 18° NNE 14:50:23 10° ENE daylight
22 Oct - 16:25:19 10° NNW 16:31:06 39° NE 16:37:02 10° ESE visible
22 Oct - 18:08:32 10° NW 18:14:44 63° WSW 18:21:01 10° SSE visible
22 Oct - 19:54:05 10° WNW 19:56:54 13° W 19:59:43 10° SW visible
23 Oct - 08:52:43 10° S 08:57:37 45° ESE 09:03:05 10° NE daylight
23 Oct - 10:35:52 10° WSW 10:40:57 42° NW 10:46:35 10° NNE daylight
23 Oct - 12:21:54 10° WNW 12:25:50 19° NNW 12:29:59 10° NNE daylight
23 Oct - 14:07:37 10° NNW 14:11:28 17° N 14:15:26 10° NE daylight
23 Oct - 15:51:08 10° NNW 15:56:38 32° NE 16:02:19 10° E daylight
23 Oct - 17:34:15 10° NW 17:40:33 81° SW 17:46:57 10° SSE visible
23 Oct - 19:18:49 10° WNW 19:23:00 19° WSW 19:27:12 10° SW visible
24 Oct - 08:19:00 10° S 08:23:35 33° ESE 08:28:39 10° NE daylight
24 Oct - 10:01:22 10° WSW 10:06:34 54° NW 10:12:22 10° NNE daylight
24 Oct - 11:47:01 10° WNW 11:51:12 21° NNW 11:55:40 10° NNE daylight
24 Oct - 13:33:06 10° NNW 13:36:46 16° N 13:40:34 10° NE daylight
24 Oct - 15:16:56 10° NNW 15:22:08 27° NNE 15:27:29 10° E daylight
24 Oct - 17:00:01 10° NW 17:06:18 80° NE 17:12:43 10° SE visible
24 Oct - 18:44:02 10° NW 18:49:03 25° WSW 18:54:05 10° SSW visible
25 Oct - 07:45:31 10° SSE 07:49:37 24° ESE 07:54:04 10° NE daylight
25 Oct - 09:26:59 10° SW 09:32:15 70° NW 09:38:09 10° NE daylight
25 Oct - 11:12:09 10° WNW 11:16:36 24° NNW 11:21:24 10° NNE daylight
25 Oct - 12:58:29 10° NW 13:02:05 16° N 13:05:49 10° NE daylight
25 Oct - 14:42:42 10° NNW 14:47:34 24° NNE 14:52:35 10° ENE daylight
25 Oct - 16:25:48 10° NNW 16:32:01 63° NE 16:38:21 10° SE visible
25 Oct - 18:09:28 10° NW 18:15:03 34° WSW 18:20:39 10° S visible
26 Oct - 07:12:24 10° SE 07:15:42 17° ESE 07:19:13 10° ENE daylight
26 Oct - 08:52:44 10° SW 08:58:00 89° SE 09:03:55 10° NE daylight
26 Oct - 10:37:19 10° W 10:42:03 28° NNW 10:47:09 10° NNE daylight
26 Oct - 12:23:45 10° NW 12:27:23 16° N 12:31:09 10° NNE daylight
26 Oct - 14:08:26 10° NNW 14:12:58 21° NNE 14:17:39 10° ENE daylight
26 Oct - 15:51:36 10° NNW 15:57:40 50° NE 16:03:52 10° ESE daylight
26 Oct - 17:35:01 10° NW 17:40:59 45° WSW 17:46:58 10° S visible
27 Oct - 06:40:01 10° ESE 06:41:51 12° E 06:43:44 10° E daylight
27 Oct - 08:18:37 10° SSW 08:23:49 67° ESE 08:29:37 10° NE daylight
27 Oct - 10:02:36 10° W 10:07:32 33° NW 10:12:57 10° NNE daylight
27 Oct - 11:48:56 10° NW 11:52:41 17° N 11:56:37 10° NNE daylight
27 Oct - 13:34:07 10° NNW 13:38:20 19° NNE 13:42:41 10° ENE daylight
27 Oct - 15:17:24 10° NNW 15:23:16 41° NE 15:29:16 10° ESE daylight
27 Oct - 17:00:40 10° NW 17:06:52 59° WSW 17:13:06 10° SSE visible
27 Oct - 18:46:31 10° WNW 18:48:57 12° W 18:51:23 10° WSW visible
28 Oct - 07:44:40 10° S 07:49:41 49° ESE 07:55:17 10° NE daylight
28 Oct - 09:27:57 10° WSW 09:33:05 41° NW 09:38:44 10° NNE daylight
28 Oct - 11:14:03 10° WNW 11:18:01 18° NNW 11:22:12 10° NNE daylight
28 Oct - 12:59:43 10° NNW 13:03:40 17° N 13:07:45 10° NE daylight
28 Oct - 14:43:13 10° NNW 14:48:49 34° NE 14:54:33 10° E daylight
28 Oct - 16:26:23 10° NW 16:32:41 77° WSW 16:39:02 10° SSE visible
28 Oct - 18:11:05 10° WNW 18:15:04 18° WSW 18:19:03 10° SW visible
29 Oct - 07:10:54 10° S 07:15:38 35° ESE 07:20:51 10° NE daylight
29 Oct - 08:53:26 10° WSW 08:58:42 51° NW 09:04:32 10° NNE daylight
29 Oct - 10:39:10 10° WNW 10:43:23 20° NNW 10:47:51 10° NNE daylight
29 Oct - 12:25:13 10° NNW 12:28:58 17° N 12:32:52 10° NE daylight
29 Oct - 14:09:00 10° NNW 14:14:19 28° NNE 14:19:45 10° E daylight
29 Oct - 15:52:07 10° NW 15:58:27 83° NE 16:04:51 10° SE daylight
29 Oct - 17:36:14 10° WNW 17:41:08 24° WSW 17:46:01 10° SSW visible
30 Oct - 06:37:22 10° SSE 06:41:39 26° ESE 06:46:18 10° NE daylight
30 Oct - 08:19:02 10° SW 08:24:21 67° NW 08:30:19 10° NE daylight
30 Oct - 10:04:17 10° WNW 10:08:46 23° NNW 10:13:34 10° NNE daylight
30 Oct - 11:50:37 10° NW 11:54:16 16° N 11:58:04 10° NE daylight
30 Oct - 13:34:47 10° NNW 13:39:45 24° NNE 13:44:52 10° E daylight
30 Oct - 15:17:54 10° NNW 15:24:10 66° NE 15:30:31 10° SE daylight
30 Oct - 17:01:38 10° NW 17:07:08 32° WSW 17:12:38 10° S visible
